When you browse on this site, cookies collect data to enhance your experience and personalize the content and advertising you see.
Visit our Privacy Policy to learn more. By continuing to use the site, you agree to this use of cookies and data.
  • In Austria
  • List of Countries
  • For 7 days
  • Water Temperature
  • Weather Map
  • News
  • Weather Widgets
  • user-avatar
    Login

    Hourly Weather Orizatlan

    Today, 21 October, Monday

    Time Temperature Precipitation Wind Pressure Humidity
    00:00 +26°C° 0 mm 1 mps 740 mmHg 93%
    01:00 +26°C° 0 mm 1 mps 740 mmHg 94%
    02:00 +26°C° 0 mm 1 mps 740 mmHg 94%
    03:00 +25°C° 0 mm 1 mps 740 mmHg 93%
    04:00 +25°C° 0 mm 1 mps 740 mmHg 93%
    05:00 +25°C° 0 mm 1 mps 740 mmHg 92%
    06:00 +27°C° 0 mm 1 mps 740 mmHg 87%
    07:00 +27°C° 0 mm 0 mps 741 mmHg 81%
    08:00 +28°C° 0 mm 0 mps 741 mmHg 76%
    09:00 +29°C° 0 mm 0 mps 741 mmHg 73%
    10:00 +32°C° 0 mm 1 mps 741 mmHg 70%
    11:00 +34°C° 0 mm 1 mps 740 mmHg 67%
    12:00 +34°C° 0.5 mm 1 mps 740 mmHg 69%
    13:00 +34°C° 0.5 mm 1 mps 739 mmHg 70%
    14:00 +34°C° 0.5 mm 1 mps 738 mmHg 72%
    15:00 +32°C° 0.7 mm 1 mps 739 mmHg 77%
    16:00 +31°C° 0.7 mm 1 mps 739 mmHg 82%
    17:00 +30°C° 0.7 mm 1 mps 740 mmHg 86%
    18:00 +29°C° 3.5 mm 1 mps 741 mmHg 89%
    19:00 +28°C° 3.5 mm 1 mps 742 mmHg 91%
    20:00 +27°C° 3.5 mm 2 mps 743 mmHg 94%
    21:00 +26°C° 4.8 mm 1 mps 743 mmHg 95%
    22:00 +26°C° 4.8 mm 1 mps 743 mmHg 96%
    23:00 +26°C° 4.8 mm 1 mps 743 mmHg 97%

    Tomorrow, 22 October, Tuesday

    Time Temperature Precipitation Wind Pressure Humidity
    00:00 +26°C° 3.3 mm 2 mps 743 mmHg 96%
    01:00 +25°C° 3.3 mm 2 mps 743 mmHg 96%
    02:00 +25°C° 3.3 mm 2 mps 743 mmHg 95%
    03:00 +25°C° 0.6 mm 2 mps 743 mmHg 95%
    04:00 +25°C° 0.6 mm 2 mps 744 mmHg 94%
    05:00 +24°C° 0.6 mm 1 mps 744 mmHg 93%
    06:00 +25°C° 0 mm 1 mps 744 mmHg 91%
    07:00 +26°C° 0 mm 1 mps 745 mmHg 90%
    08:00 +26°C° 0 mm 1 mps 746 mmHg 88%
    09:00 +26°C° 0.1 mm 2 mps 745 mmHg 89%
    10:00 +25°C° 0.1 mm 2 mps 745 mmHg 89%
    11:00 +24°C° 0.1 mm 3 mps 745 mmHg 90%
    12:00 +24°C° 0.3 mm 3 mps 745 mmHg 91%
    13:00 +24°C° 0.3 mm 2 mps 744 mmHg 92%
    14:00 +24°C° 0.3 mm 2 mps 744 mmHg 93%
    15:00 +23°C° 0.6 mm 2 mps 744 mmHg 95%
    16:00 +23°C° 0.6 mm 1 mps 745 mmHg 96%
    17:00 +23°C° 0.6 mm 1 mps 745 mmHg 98%
    18:00 +23°C° 0.5 mm 1 mps 746 mmHg 98%
    19:00 +23°C° 0.5 mm 1 mps 746 mmHg 98%
    20:00 +23°C° 0.5 mm 1 mps 746 mmHg 98%
    21:00 +23°C° 0.7 mm 1 mps 746 mmHg 98%
    22:00 +23°C° 0.7 mm 1 mps 746 mmHg 98%
    23:00 +23°C° 0.7 mm 1 mps 746 mmHg 97%

    Day after tomorrow, 23 October, Wednesday

    Time Temperature Precipitation Wind Pressure Humidity
    00:00 +23°C° 0.5 mm 1 mps 746 mmHg 97%
    01:00 +23°C° 0.5 mm 1 mps 745 mmHg 97%
    02:00 +23°C° 0.5 mm 1 mps 745 mmHg 97%
    03:00 +23°C° 0.1 mm 1 mps 745 mmHg 96%
    04:00 +23°C° 0.1 mm 1 mps 745 mmHg 95%
    05:00 +23°C° 0.1 mm 1 mps 745 mmHg 95%
    06:00 +24°C° 0 mm 1 mps 745 mmHg 91%
    07:00 +25°C° 0 mm 1 mps 746 mmHg 87%
    08:00 +26°C° 0 mm 1 mps 746 mmHg 84%
    09:00 +27°C° 0 mm 1 mps 745 mmHg 81%
    10:00 +27°C° 0 mm 2 mps 745 mmHg 79%
    11:00 +28°C° 0 mm 2 mps 744 mmHg 76%
    12:00 +28°C° 0 mm 2 mps 743 mmHg 76%
    13:00 +28°C° 0 mm 2 mps 743 mmHg 76%
    14:00 +29°C° 0 mm 2 mps 742 mmHg 76%
    15:00 +27°C° 0.2 mm 1 mps 742 mmHg 81%
    16:00 +26°C° 0.2 mm 1 mps 742 mmHg 86%
    17:00 +23°C° 0.2 mm 0 mps 742 mmHg 91%
    18:00 +23°C° 0.6 mm 0 mps 743 mmHg 92%
    19:00 +24°C° 0.6 mm 1 mps 744 mmHg 92%
    20:00 +24°C° 0.6 mm 1 mps 744 mmHg 93%
    21:00 +24°C° 0.1 mm 1 mps 744 mmHg 93%
    22:00 +23°C° 0.1 mm 1 mps 744 mmHg 92%
    23:00 +23°C° 0.1 mm 1 mps 743 mmHg 92%

    24 October, Thursday

    Time Temperature Precipitation Wind Pressure Humidity
    00:00 +23°C° 0 mm 1 mps 743 mmHg 91%
    01:00 +23°C° 0 mm 1 mps 743 mmHg 91%
    02:00 +22°C° 0 mm 1 mps 742 mmHg 91%
    03:00 +22°C° 0 mm 1 mps 742 mmHg 91%
    04:00 +22°C° 0 mm 1 mps 742 mmHg 90%
    05:00 +22°C° 0 mm 1 mps 742 mmHg 89%
    06:00 +24°C° 0 mm 1 mps 743 mmHg 84%
    07:00 +25°C° 0 mm 1 mps 743 mmHg 79%
    08:00 +25°C° 0 mm 0 mps 743 mmHg 74%
    09:00 +28°C° 0 mm 1 mps 743 mmHg 71%
    10:00 +29°C° 0 mm 1 mps 742 mmHg 69%
    11:00 +30°C° 0 mm 1 mps 742 mmHg 67%
    12:00 +30°C° 0.1 mm 1 mps 741 mmHg 69%
    13:00 +30°C° 0.1 mm 2 mps 740 mmHg 72%
    14:00 +30°C° 0.1 mm 2 mps 740 mmHg 74%
    15:00 +29°C° 0.1 mm 1 mps 740 mmHg 79%
    16:00 +27°C° 0.1 mm 1 mps 740 mmHg 83%
    17:00 +24°C° 0.1 mm 0 mps 740 mmHg 88%
    18:00 +24°C° 0.3 mm 0 mps 741 mmHg 90%
    19:00 +25°C° 0.3 mm 1 mps 742 mmHg 92%
    20:00 +25°C° 0.3 mm 1 mps 742 mmHg 94%
    21:00 +24°C° 0.5 mm 1 mps 742 mmHg 94%
    22:00 +24°C° 0.5 mm 1 mps 742 mmHg 94%
    23:00 +24°C° 0.5 mm 1 mps 743 mmHg 95%

    25 October, Friday

    Time Temperature Precipitation Wind Pressure Humidity
    00:00 +24°C° 0.8 mm 1 mps 742 mmHg 94%
    01:00 +24°C° 0.8 mm 1 mps 742 mmHg 94%
    02:00 +23°C° 0.8 mm 1 mps 742 mmHg 93%
    03:00 +24°C° 0.9 mm 1 mps 743 mmHg 93%
    04:00 +24°C° 0.9 mm 1 mps 743 mmHg 94%
    05:00 +24°C° 0.9 mm 1 mps 743 mmHg 94%
    06:00 +23°C° 1.3 mm 2 mps 744 mmHg 94%
    07:00 +23°C° 1.3 mm 2 mps 744 mmHg 94%
    08:00 +22°C° 1.3 mm 3 mps 745 mmHg 95%
    09:00 +22°C° 0.7 mm 3 mps 745 mmHg 94%
    10:00 +21°C° 0.7 mm 3 mps 745 mmHg 93%
    11:00 +21°C° 0.7 mm 3 mps 745 mmHg 93%
    12:00 +21°C° 0.2 mm 2 mps 745 mmHg 92%
    13:00 +21°C° 0.2 mm 2 mps 745 mmHg 91%
    14:00 +21°C° 0.2 mm 2 mps 745 mmHg 91%
    15:00 +20°C° 0.2 mm 2 mps 746 mmHg 90%
    16:00 +20°C° 0.2 mm 2 mps 746 mmHg 90%
    17:00 +20°C° 0.2 mm 2 mps 747 mmHg 89%
    18:00 +20°C° 0.2 mm 2 mps 747 mmHg 88%
    19:00 +20°C° 0.2 mm 2 mps 748 mmHg 88%
    20:00 +20°C° 0.2 mm 2 mps 749 mmHg 87%
    21:00 +19°C° 0.1 mm 2 mps 749 mmHg 85%
    22:00 +19°C° 0.1 mm 2 mps 749 mmHg 84%
    23:00 +18°C° 0.1 mm 2 mps 749 mmHg 82%

    26 October, Saturday

    Time Temperature Precipitation Wind Pressure Humidity
    00:00 +18°C° 0 mm 2 mps 748 mmHg 81%
    01:00 +18°C° 0 mm 2 mps 748 mmHg 79%
    02:00 +18°C° 0 mm 2 mps 748 mmHg 77%
    03:00 +17°C° 0 mm 2 mps 748 mmHg 75%
    04:00 +17°C° 0 mm 2 mps 748 mmHg 72%
    05:00 +17°C° 0 mm 2 mps 748 mmHg 69%
    06:00 +18°C° 0 mm 2 mps 748 mmHg 66%
    07:00 +19°C° 0 mm 2 mps 749 mmHg 64%
    08:00 +19°C° 0 mm 2 mps 749 mmHg 61%
    09:00 +20°C° 0 mm 2 mps 749 mmHg 59%
    10:00 +21°C° 0 mm 2 mps 748 mmHg 57%
    11:00 +21°C° 0 mm 2 mps 747 mmHg 55%
    12:00 +21°C° 0 mm 2 mps 747 mmHg 57%
    13:00 +21°C° 0 mm 2 mps 746 mmHg 58%
    14:00 +23°C° 0 mm 2 mps 745 mmHg 60%
    15:00 +21°C° 0 mm 1 mps 745 mmHg 65%
    16:00 +20°C° 0 mm 1 mps 745 mmHg 70%
    17:00 +16°C° 0 mm 0 mps 746 mmHg 76%
    18:00 +16°C° 0 mm 0 mps 746 mmHg 76%
    19:00 +15°C° 0 mm 0 mps 746 mmHg 77%
    20:00 +16°C° 0 mm 1 mps 747 mmHg 77%
    21:00 +16°C° 0 mm 1 mps 747 mmHg 76%
    22:00 +15°C° 0 mm 1 mps 746 mmHg 75%
    23:00 +15°C° 0 mm 1 mps 746 mmHg 74%

    27 October, Sunday

    Time Temperature Precipitation Wind Pressure Humidity
    00:00 +15°C° 0 mm 1 mps 745 mmHg 73%
    01:00 +15°C° 0 mm 1 mps 745 mmHg 73%
    02:00 +15°C° 0 mm 1 mps 744 mmHg 72%
    03:00 +14°C° 0 mm 0 mps 744 mmHg 73%
    04:00 +14°C° 0 mm 0 mps 744 mmHg 73%
    05:00 +14°C° 0 mm 0 mps 744 mmHg 74%
    06:00 +16°C° 0 mm 0 mps 744 mmHg 71%
    07:00 +18°C° 0 mm 0 mps 744 mmHg 69%
    08:00 +19°C° 0 mm 0 mps 745 mmHg 66%
    09:00 +23°C° 0 mm 1 mps 744 mmHg 65%
    10:00 +24°C° 0 mm 1 mps 744 mmHg 64%
    11:00 +25°C° 0 mm 2 mps 744 mmHg 62%
    12:00 +25°C° 0 mm 2 mps 743 mmHg 65%
    13:00 +25°C° 0 mm 2 mps 743 mmHg 67%
    14:00 +25°C° 0 mm 2 mps 742 mmHg 70%
    15:00 +24°C° 0 mm 1 mps 742 mmHg 75%
    16:00 +23°C° 0 mm 1 mps 743 mmHg 81%
    17:00 +19°C° 0 mm 0 mps 743 mmHg 86%
    18:00 +19°C° 0 mm 0 mps 744 mmHg 88%
    19:00 +18°C° 0 mm 0 mps 744 mmHg 90%
    20:00 +17°C° 0 mm 0 mps 745 mmHg 92%
    21:00 +17°C° 0 mm 0 mps 745 mmHg 92%
    22:00 +17°C° 0 mm 0 mps 745 mmHg 93%
    23:00 +17°C° 0 mm 0 mps 745 mmHg 93%
    Show more